Date,TemperatureHighF,TemperatureAvgF,TemperatureLowF,DewpointHighF,DewpointAvgF,DewpointLowF,HumidityHigh,HumidityAvg,HumidityLow,PressureMaxIn,PressureMinIn,WindSpeedMaxMPH,WindSpeedAvgMPH,GustSpeedMaxMPH,PrecipitationSumIn
2013-3-1,79.0,78.1,77.0,74.0,71.4,69.0,84,80,75,29.97,29.90,23,12,0,0.00
2013-3-2,77.0,77.0,77.0,72.0,70.5,69.0,83,79,75,29.97,29.94,14,12,0,0.00
2013-3-3,77.0,77.0,77.0,74.0,73.0,72.0,91,87,83,30.00,29.97,11,9,0,0.00
2013-3-4,80.0,78.7,77.0,74.0,73.7,73.0,91,85,84,30.01,29.93,23,18,0,0.00
2013-3-10,80.0,80.0,80.0,76.0,76.0,76.0,88,88,88,29.86,29.86,30,30,0,0.00
2013-3-11,81.0,80.4,79.0,76.0,75.0,74.0,87,84,80,29.93,29.84,28,26,0,0.00
2013-3-12,80.0,79.6,79.0,76.0,74.7,73.0,88,85,80,29.96,29.86,25,21,0,0.00
2013-3-13,80.0,79.6,79.0,75.0,74.4,74.0,87,85,84,29.92,29.85,34,30,0,0.00
2013-3-14,78.0,78.0,78.0,73.0,73.0,73.0,84,84,84,29.93,29.93,23,23,0,0.00
2013-3-15,78.0,77.2,77.0,72.0,71.8,71.0,83,82,80,29.99,29.88,26,18,0,0.00
2013-3-18,81.0,80.2,79.0,75.0,74.6,74.0,84,84,84,29.96,29.94,23,23,0,0.00
2013-3-23,79.0,79.0,79.0,74.0,74.0,74.0,84,84,84,29.98,29.98,24,24,0,0.00
2013-3-24,79.0,79.0,79.0,74.0,74.0,74.0,84,84,84,29.98,29.98,24,24,0,0.00
2013-3-25,79.0,78.4,78.0,75.0,74.6,74.0,91,88,84,30.03,30.03,25,24,0,0.00
2013-3-26,79.0,77.6,76.0,75.0,73.7,72.0,91,88,84,30.08,30.00,25,21,0,0.00
2013-3-27,76.0,75.0,74.0,73.0,72.1,72.0,91,90,87,30.12,30.01,23,16,0,0.00
2013-3-28,81.0,73.1,66.0,75.0,70.6,66.0,100,91,83,30.02,29.90,32,25,0,0.00
2013-3-29,73.0,68.3,66.0,68.0,66.8,65.0,100,94,82,29.96,29.90,22,16,0,0.00
2013-3-30,69.0,66.1,64.0,66.0,63.1,61.0,91,90,89,29.95,29.81,39,26,0,0.00
2013-3-31,64.0,64.0,64.0,61.0,61.0,61.0,89,89,89,29.81,29.81,39,39,0,0.00